Flight Track Log - Related Links

Times and Time Zones

All times are in EDT time to prevent confusion due to time zone crossing. See the HAL242 flight status page for this flight to view local times or setup timezone preferences in your user account.

Time Position Orientation Groundspeed Altitude Reporting Facility
EDT Latitude Longitude Course Direction KTS MPH feet Rate Location/Type
Fri 01:40:10 AM 21.3167 -157.9000 148° Southeast 180 207 900  Level Honolulu Center
Fri 01:41:10 AM 21.2667 -157.8667 148° Southeast 220 253 3,200 2,100 Climbing Honolulu Center
Fri 01:42:10 AM 21.2333 -157.8167 126° Southeast 240 276 5,100 2,150 Climbing Honolulu Center
Fri 01:43:10 AM 21.2167 -157.7500 105° East 250 288 7,500 2,150 Climbing Honolulu Center
Fri 01:44:10 AM 21.2000 -157.6667 102° East 270 311 9,400 1,650 Climbing Honolulu Center
Fri 01:45:10 AM 21.1667 -157.5833 113° Southeast 310 357 10,800 1,500 Climbing Honolulu Center
Fri 01:46:10 AM 21.1333 -157.4833 110° East 330 380 12,400 1,750 Climbing Honolulu Center
Fri 01:47:10 AM 21.1000 -157.4000 113° Southeast 340 391 14,300 1,900 Climbing Honolulu Center
Fri 01:48:10 AM 21.0500 -157.3000 118° Southeast 350 403 16,200 1,736 Climbing Honolulu Center
Fri 01:49:11 AM 21.0167 -157.2000 110° East 360 414 17,800 1,587 Climbing Honolulu Center
Fri 01:50:11 AM 20.9833 -157.1000 110° East 370 426 19,400 1,700 Climbing Honolulu Center
Fri 01:51:11 AM 20.9333 -157.0000 118° Southeast 380 437 21,200 1,800 Climbing Honolulu Center
Fri 01:52:11 AM 20.8833 -156.9000 118° Southeast 380 437 23,000 1,500 Climbing Honolulu Center
Fri 01:53:11 AM 20.8500 -156.8000 110° East 400 460 24,200 1,000 Climbing Honolulu Center
Fri 01:54:11 AM 20.8000 -156.6833 115° Southeast 420 483 25,000 400 Climbing Honolulu Center
Fri 01:55:11 AM 20.7500 -156.5667 115° Southeast 420 483 25,000  Level Honolulu Center
Fri 01:56:11 AM 20.7000 -156.4500 115° Southeast 430 495 25,000  Level Honolulu Center
Fri 01:57:11 AM 20.6500 -156.3333 115° Southeast 420 483 25,000  Level Honolulu Center
Fri 01:58:11 AM 20.6000 -156.2167 115° Southeast 420 483 25,000  Level Honolulu Center
Fri 01:59:11 AM 20.5500 -156.1167 118° Southeast 420 483 25,000 -350 Level Honolulu Center
Fri 02:00:11 AM 20.5000 -156.0000 115° Southeast 420 483 24,300 -1,636 Descending Honolulu Center
Fri 02:01:12 AM 20.4500 -155.8833 115° Southeast 410 472 21,700 -2,628 Descending Honolulu Center
Fri 02:02:12 AM 20.4167 -155.7833 110° East 390 449 19,000 -2,550 Descending Honolulu Center
Fri 02:03:12 AM 20.3667 -155.6833 118° Southeast 370 426 16,600 -2,200 Descending Honolulu Center
Fri 02:04:12 AM 20.3333 -155.5833 110° East 340 391 14,600 -1,850 Descending Honolulu Center
Fri 02:05:12 AM 20.2833 -155.5000 123° Southeast 320 368 12,900 -1,600 Descending Honolulu Center
Fri 02:06:12 AM 20.2500 -155.4167 113° Southeast 290 334 11,400 -1,700 Descending Honolulu Center
Fri 02:07:12 AM 20.1833 -155.3667 145° Southeast 280 322 9,500 -1,650 Descending Honolulu Center
Fri 02:08:12 AM 20.1333 -155.3000 129° Southeast 270 311 8,100 -1,300 Descending Honolulu Center
Fri 02:09:12 AM 20.0833 -155.2500 137° Southeast 260 299 6,900 -1,300 Descending Honolulu Center
Fri 02:10:12 AM 20.0500 -155.2000 125° Southeast 250 288 5,500 -1,600 Descending Honolulu Center
Fri 02:11:12 AM 20.0000 -155.1333 129° Southeast 250 288 3,700 -1,785 Descending Honolulu Center
Fri 02:12:13 AM 19.9500 -155.0833 137° Southeast 240 276 1,900 -1,770 Descending Honolulu Center

Login

Don't have an account? Register now (free) for customized features, flight alerts, and more!